TimeEDT,TemperatureF,Dew PointF,Humidity,Sea Level PressureIn,VisibilityMPH,Wind Direction,Wind SpeedMPH,Gust SpeedMPH,PrecipitationIn,Events,Conditions,WindDirDegrees,DateUTC
12:15 AM,32.5,26.8,79,30.18,10.0,WSW,5.8,-,N/A,,Clear,240,2013-03-15 04:15:00
12:35 AM,33.3,27.7,80,30.18,10.0,WSW,8.1,-,N/A,,Clear,250,2013-03-15 04:35:00
12:55 AM,35.1,29.7,81,30.19,10.0,WSW,8.1,-,N/A,,Clear,250,2013-03-15 04:55:00
1:15 AM,34.7,30.6,85,30.17,10.0,WSW,8.1,-,N/A,,Clear,240,2013-03-15 05:15:00
1:35 AM,32.5,29.3,88,30.16,10.0,SW,5.8,-,N/A,,Clear,230,2013-03-15 05:35:00
1:55 AM,32.5,30.2,91,30.17,10.0,WSW,4.6,-,N/A,,Clear,240,2013-03-15 05:55:00
2:15 AM,32.5,30.6,92,30.16,10.0,SW,6.9,-,N/A,,Clear,220,2013-03-15 06:15:00
2:35 AM,32.5,31.1,94,30.16,10.0,SW,5.8,-,N/A,,Clear,230,2013-03-15 06:35:00
2:55 AM,32.5,31.1,94,30.15,10.0,SW,4.6,-,N/A,,Clear,230,2013-03-15 06:55:00
3:15 AM,32.5,31.6,96,30.15,10.0,SW,5.8,-,N/A,,Clear,220,2013-03-15 07:15:00
3:35 AM,32.5,32.0,98,30.13,10.0,SW,5.8,-,N/A,,Clear,220,2013-03-15 07:35:00
3:55 AM,32.5,32.0,98,30.11,10.0,SW,6.9,-,N/A,,Clear,220,2013-03-15 07:55:00
4:15 AM,32.5,32.2,99,30.11,10.0,SW,3.5,-,N/A,,Clear,220,2013-03-15 08:15:00
4:35 AM,30.2,30.2,100,30.11,10.0,WSW,3.5,-,N/A,,Clear,240,2013-03-15 08:35:00
4:55 AM,30.2,30.2,100,30.10,10.0,Calm,Calm,-,N/A,,Clear,0,2013-03-15 08:55:00
5:15 AM,29.8,29.8,100,30.09,7.0,Calm,Calm,-,N/A,,Clear,0,2013-03-15 09:15:00
5:35 AM,28.9,28.9,100,30.09,5.0,Calm,Calm,-,N/A,,Clear,0,2013-03-15 09:35:00
5:55 AM,27.9,27.9,100,30.09,5.0,Calm,Calm,-,N/A,,Clear,0,2013-03-15 09:55:00
6:15 AM,27.9,27.9,100,30.08,5.0,Calm,Calm,-,N/A,,Clear,0,2013-03-15 10:15:00
6:35 AM,27.9,27.9,100,30.07,3.0,Calm,Calm,-,N/A,,Clear,0,2013-03-15 10:35:00
6:55 AM,27.9,27.9,100,30.07,4.0,Calm,Calm,-,N/A,,Clear,0,2013-03-15 10:55:00
7:15 AM,28.0,28.0,100,30.06,5.0,WSW,3.5,-,N/A,,Clear,250,2013-03-15 11:15:00
7:35 AM,27.9,27.9,100,30.05,5.0,SW,4.6,-,N/A,,Clear,220,2013-03-15 11:35:00
7:55 AM,29.1,29.1,100,30.05,5.0,SW,3.5,-,N/A,,Clear,230,2013-03-15 11:55:00
8:15 AM,29.3,29.3,100,30.04,5.0,WSW,3.5,-,N/A,,Clear,240,2013-03-15 12:15:00
8:35 AM,30.4,30.4,100,30.04,5.0,WSW,3.5,-,N/A,,Clear,240,2013-03-15 12:35:00
8:55 AM,32.5,32.5,100,30.04,4.0,SW,3.5,-,N/A,,Clear,230,2013-03-15 12:55:00
9:15 AM,32.5,32.5,100,30.04,5.0,SW,4.6,-,N/A,,Clear,220,2013-03-15 13:15:00
9:35 AM,34.9,34.2,97,30.03,10.0,SSW,5.8,-,N/A,,Clear,210,2013-03-15 13:35:00
9:55 AM,35.1,33.4,94,30.02,10.0,SW,5.8,-,N/A,,Clear,220,2013-03-15 13:55:00
10:15 AM,35.1,33.8,95,30.01,10.0,SW,5.8,-,N/A,,Clear,220,2013-03-15 14:15:00
10:35 AM,35.2,33.3,92,30.01,10.0,SW,6.9,-,N/A,,Clear,230,2013-03-15 14:35:00
10:55 AM,37.6,34.9,90,30.01,10.0,SW,5.8,-,N/A,,Clear,220,2013-03-15 14:55:00
11:55 AM,40.1,34.7,81,29.98,10.0,SW,9.2,-,N/A,,Clear,220,2013-03-15 15:55:00
12:15 PM,41.0,34.9,79,29.98,10.0,WSW,5.8,-,N/A,,Clear,240,2013-03-15 16:15:00
12:35 PM,41.5,34.5,76,29.98,10.0,West,8.1,-,N/A,,Clear,260,2013-03-15 16:35:00
12:55 PM,44.1,36.3,74,29.98,10.0,West,6.9,-,N/A,,Clear,270,2013-03-15 16:55:00
1:15 PM,45.1,37.4,74,29.98,10.0,WNW,6.9,-,N/A,,Clear,290,2013-03-15 17:15:00
1:35 PM,45.7,38.1,75,29.98,10.0,West,8.1,-,N/A,,Clear,280,2013-03-15 17:35:00
1:55 PM,47.7,39.2,72,29.97,10.0,West,5.8,-,N/A,,Clear,270,2013-03-15 17:55:00
2:15 PM,47.7,38.8,71,29.96,10.0,SW,4.6,-,N/A,,Clear,220,2013-03-15 18:15:00
2:35 PM,47.7,38.3,70,29.94,10.0,SSW,6.9,-,N/A,,Clear,200,2013-03-15 18:35:00
2:55 PM,47.7,37.2,67,29.94,10.0,WSW,8.1,-,N/A,,Clear,250,2013-03-15 18:55:00
3:15 PM,47.7,37.4,68,29.93,10.0,South,5.8,-,N/A,,Clear,190,2013-03-15 19:15:00
3:35 PM,50.2,39.0,66,29.92,10.0,SW,6.9,-,N/A,,Clear,220,2013-03-15 19:35:00
3:55 PM,50.4,38.8,65,29.91,10.0,SSW,9.2,-,N/A,,Clear,200,2013-03-15 19:55:00
4:15 PM,51.1,39.9,66,29.91,10.0,SW,8.1,-,N/A,,Clear,230,2013-03-15 20:15:00
4:35 PM,51.6,40.3,65,29.90,10.0,SW,9.2,-,N/A,,Clear,220,2013-03-15 20:35:00
4:55 PM,52.7,41.0,64,29.90,10.0,SSW,9.2,-,N/A,,Scattered Clouds,200,2013-03-15 20:55:00
5:15 PM,52.7,41.0,64,29.90,10.0,WSW,6.9,-,N/A,,Scattered Clouds,240,2013-03-15 21:15:00
5:35 PM,52.7,41.0,64,29.90,10.0,WSW,8.1,-,N/A,,Scattered Clouds,240,2013-03-15 21:35:00
5:55 PM,52.7,40.6,64,29.90,10.0,WSW,8.1,-,N/A,,Mostly Cloudy,250,2013-03-15 21:55:00
6:15 PM,52.7,40.6,64,29.90,10.0,West,6.9,-,N/A,,Overcast,270,2013-03-15 22:15:00
6:35 PM,52.7,41.0,64,29.90,10.0,West,8.1,-,N/A,,Overcast,260,2013-03-15 22:35:00
6:55 PM,52.7,41.4,65,29.90,10.0,Calm,Calm,-,N/A,,Overcast,0,2013-03-15 22:55:00
7:15 PM,50.4,40.3,68,29.90,10.0,Calm,Calm,-,N/A,,Overcast,0,2013-03-15 23:15:00
7:35 PM,49.8,41.0,72,29.89,10.0,Calm,Calm,-,N/A,,Light Drizzle,0,2013-03-15 23:35:00
7:55 PM,47.7,41.5,79,29.86,10.0,ESE,3.5,-,N/A,,Overcast,120,2013-03-15 23:55:00
8:15 PM,47.7,42.8,83,29.89,10.0,West,9.2,-,N/A,,Overcast,270,2013-03-16 00:15:00
8:35 PM,47.7,40.8,77,29.89,10.0,Calm,Calm,-,N/A,,Overcast,0,2013-03-16 00:35:00
8:55 PM,47.7,41.5,79,29.89,10.0,Calm,Calm,-,N/A,,Overcast,0,2013-03-16 00:55:00
9:15 PM,47.7,43.0,84,29.89,10.0,Calm,Calm,-,N/A,,Overcast,0,2013-03-16 01:15:00
9:35 PM,47.7,43.3,85,29.88,10.0,Calm,Calm,-,N/A,,Overcast,0,2013-03-16 01:35:00
9:55 PM,45.9,43.0,90,29.88,10.0,South,4.6,-,N/A,,Overcast,170,2013-03-16 01:55:00
10:15 PM,48.0,40.5,75,29.85,10.0,SE,3.5,-,N/A,,Overcast,140,2013-03-16 02:15:00
10:35 PM,47.7,41.9,80,29.86,10.0,North,4.6,-,N/A,,Overcast,350,2013-03-16 02:35:00
10:55 PM,47.7,43.7,86,29.85,10.0,NNE,3.5,-,N/A,,Overcast,20,2013-03-16 02:55:00
11:15 PM,45.1,42.3,90,29.83,10.0,NE,4.6,-,N/A,,Overcast,40,2013-03-16 03:15:00
11:35 PM,47.7,43.5,86,29.82,10.0,NE,3.5,-,N/A,,Overcast,40,2013-03-16 03:35:00
11:55 PM,46.8,42.6,85,29.80,10.0,NNE,5.8,-,N/A,,Mostly Cloudy,30,2013-03-16 03:55:00